Location: Bergnershof
(48.9468°N, 10.9431°E)
Time: 11:49:32
(UTC+00:00)

FALCON 9 DEB - Pass Details

Date: 03 March 2021
Orbit: 367 x 387 km, 53.0° (Epoch: 12 April)

Event Time Altitude Azimuth Distance (km) Brightness Sun altitude
Rises 17:54:49 0° 279° (W) 2,290 8.9 -9.3°
Reaches altitude 10° 17:56:59 10° 288° (WNW) 1,433 7.1 -9.7°
Maximum altitude 18:00:00 37° 358° (N) 625 3.9 -10.2°
Enters shadow 18:02:27 14° 64° (ENE) 1,213 4.8 -10.6°
